Flag for Canada Weather past 2 weeks in Windsor, Ontario, Canada

Now
18 °F

Passing clouds.


Feels Like: 5 °F
Forecast: 19 / 35 °F
Wind: 12 mph from Northwest

Location: Windsor Weather Station

Current Time: Mar 28, 2015 at 6:11:38 AM

Latest Report: Mar 28, 2015 at 5:00 AM


Visibility: 15 mi

Pressure: 30.19 "Hg

Humidity: 62%

Dew point: 7 °F

Location of WindsorLocation

Historic Weather in Windsor — Graph

°F

Windsor temperature yesterday

Maximum temperature yesterday: 36 °F (at 12:00 AM)
Minimum temperature yesterday: 18 °F (at 11:00 PM)
Average temperature yesterday: 25 °F

Past Weeks' High & Low Weather Summary

 TemperatureHumidityPressure
High55 °F (Mar 16, 11:00 AM)100% (Mar 13, 10:00 PM)30.40 "Hg (Mar 13, 10:00 PM)
Low16 °F (Mar 28, 12:00 AM)22% (Mar 17, 3:00 PM)29.70 "Hg (Mar 17, 1:00 AM)
Average35 °F68%30.12 "Hg
* Reported Mar 13 4:00 AM — Mar 28 4:00 AM, Windsor, Weather by CustomWeather, © 2015

Note: Actual official high and low records may vary slightly from our data, if they occured in-between our weather recording intervals... More about our weather records

Advertising

Windsor weather history for previous 24 hours

 ConditionsComfort  
Time TempWeatherWind HumidityBarometerVisibility
4:00 AM
Sat, Mar 28
18 °FPassing clouds.10 mph62%30.19 "Hg15 mi
3:00 AM18 °FPassing clouds.10 mph62%30.19 "Hg15 mi
2:00 AM18 °FPassing clouds.12 mph62%30.19 "Hg15 mi
1:00 AM16 °FPassing clouds.8 mph62%30.19 "Hg15 mi
12:00 AM16 °FPassing clouds.9 mph62%30.19 "Hg15 mi
11:00 PM
Fri, Mar 27
18 °FPassing clouds.12 mph58%30.17 "Hg15 mi
10:00 PM19 °FPassing clouds.10 mph58%30.16 "Hg15 mi
9:00 PM21 °FClear.13 mph58%30.13 "Hg15 mi
8:00 PM21 °FScattered showers. Scattered clouds.12 mph58%30.11 "Hg15 mi
7:00 PM23 °FScattered showers. Broken clouds.15 mph54%30.09 "Hg12 mi
6:00 PM25 °FScattered showers. Partly sunny.13 mph54%30.07 "Hg10 mi
5:00 PM25 °FSnow flurries. Overcast.14 mph63%30.05 "Hg8 mi
4:00 PM27 °FSnow flurries. Mostly cloudy.15 mph59%30.05 "Hg8 mi
3:00 PM25 °FSnow flurries. Overcast.15 mph63%30.05 "Hg8 mi
2:00 PM25 °FSnow flurries. Overcast.10 mph69%30.05 "Hg6 mi
1:47 PM23 °FSnow flurries. Overcast.17 mph80%30.05 "Hg1 mi
1:00 PM25 °FSnow showers. Overcast.15 mph69%30.03 "Hg6 mi
12:00 PM25 °FLight snow. Overcast.14 mph63%30.03 "Hg6 mi
11:00 AM25 °FLight snow. Mostly cloudy.14 mph63%30.03 "Hg8 mi
10:00 AM23 °FLight snow. Mostly cloudy.18 mph68%30.02 "Hg8 mi
9:00 AM23 °FOvercast.17 mph63%30.01 "Hg15 mi
8:00 AM23 °FLight snow. Passing clouds.14 mph58%30.00 "Hg15 mi
7:00 AM23 °FLight snow. Passing clouds.16 mph68%29.99 "Hg15 mi
6:54 AM23 °FLight snow. Passing clouds.15 mph68%29.99 "Hg15 mi
6:00 AM25 °FPassing clouds.16 mph63%29.98 "Hg15 mi
Weather by CustomWeather, © 2015

See weather overviewHow to use our weather pages